Location: Krakow
(50.0830°N, 19.9170°E)
Time: 11:05:09
(UTC+01:00)

Transit 2A - Pass Details

Date: 17 February 2023
Orbit: 591 x 964 km, 66.7° (Epoch: 21 March)

Event Time Altitude Azimuth Distance (km) Brightness Sun altitude
Rises 23:10:43 0° 316° (NW) 3,562 10.0 -50.7°
Enters shadow 23:12:17 - 310° (NW) 3,055 9.5 -50.8°
Reaches altitude 10° 23:13:37 10° 304° (NW) 2,654 - -50.8°
Maximum altitude 23:18:34 25° 251° (WSW) 1,821 - -51.0°
Drops below altitude 10° 23:23:35 10° 199° (SSW) 2,695 - -51.2°
Sets 23:26:34 0° 187° (S) 3,627 - -51.3°
